Weather in Korablino

Russia / Ryazan Oblast     53°55′36″N   40°02′04″E
temp.,
°C
wind,
m/s
gust,
m/s
humid.,
%
clouds,
%
prec.,
mm/h
press.,
hPa
HPBL,
m
17 may, mon
mon1700:00+15ne4682100 0.0 101381
03:00+15ene3592100 1.1 101396
06:00+16ene389211 0.0 1013194
09:00+21e57755 0.0 1013424
12:00+26se675697 0.0 1013901
15:00+26se695665 0.0 10121151
18:00+23ese4106790 0.0 1011293
21:00+18ese41282100 0.0 1012196
18 may, tue
tue1800:00+18se5156796 0.0 1011305
03:00+16ese515660 0.0 1011282
06:00+16se4147230 0.0 1011300
09:00+21se511587 0.0 1011455
12:00+25se6104920 0.0 1011784
15:00+26ese610535 0.0 10091118
18:00+24ese71562100 0.0 1008606
21:00+21ese6176318 0.0 1009423
19 may, wed
wed1900:00+18se515615 0.0 1008359
03:00+15se38720 0.0 1009137
06:00+15ese37790 0.0 1009164
09:00+20ese4763100 0.0 1009394
12:00+24se6955100 0.0 1009909
15:00+25se595596 0.0 10091321
18:00+23sse357284 0.3 1008152
21:00+18ese2291100 3.3 100821
20 may, thu
thu2000:00+18ne2288100 4.8 100721
03:00+15ese379246 5.1 1007130
06:00+16ese4119042 0.2 1006437
09:00+19sse687870 0.3 1007966
12:00+18s71077100 1.5 10091220
15:00+19s7106411 2.1 10111538
18:00+18sse587569 0.4 1012747
21:00+14sse49930 0.4 1013196
21 may, fri
fri2100:00+13ssw499641 0.0 1014217
03:00+11ssw49967 0.0 1016219
06:00+12sw3891100 0.0 1017238
09:00+17sw5775100 0.0 1018774
12:00+20wsw686356 0.3 10191539
15:00+21sw466032 0.6 10191497
18:00+20ssw3470100 0.2 1019516
21:00+16sse338399 0.2 101937